Portada
METAR-TAF:

METAR-TAF

Aeroports :

Cumberland, Wisconsin, Estats Units d'Amèrica

latitud: 45-30-21N, longitud: 091-58-52W, altitud: 379 m

Observació

L'informe es va fer fa 16 minuts, a les 00:15 UTC
Vent 8 kt del Nord-Oest
Temperatura -16°C
Humitat 60%
Pressió 1025 hPa
Visibilitat: 16.1 km
Cel clar

METAR: KUBE 200015Z AUTO 32008KT 10SM CLR M16/M22 A3026 RMK AO2

Hora: 18:31 (00:31 UTC)


TAF: manca

Observacions i pronòstics meteorològics de més de 4000 aeroports (METAR i TAF).

Les estacions disponibles són els punts grocs i vermells al mapa.

Posi el ratolí al punt desitjat per veure el nom de l'estació.

Feu clic per veure les observacions i els pronòstics meteorològics.

Per canviar el mapa: feu clic els botons verds amb una creu de color negre per apropar; al botó verd amb un guió per allunyar la imatge; o en les fletxes verdes per a mapes adjacents.


METAR-TAF: